Hovedside
METAR-TAF:

METAR-TAF

Lufthavner :

Vilhelmina, Sverige

breddegrad: 64-34-44N, lengdegrad: 016-50-00E, høyde over havet: 347 m

Gjeldene værobservasjon

Denne rapporten ble laget for 38 minutter siden, klokken 09:50 UTC
Vind 4 kt fra Nordøst, skiftende mellom Nord og Øst-nordøst
Temperatur 10°C
Luftfuktighet 82%
Trykk 987 hPa
Sikt 10 km eller mer
lett regn

METAR: ESNV 250950Z AUTO 04004KT 010V070 9999 -RA SCT008/// OVC011/// 10/07 Q0987

Tid: 12:28 (10:28 UTC)


TAF: fraværende

Værobservasjoner og værvarsel for over 4000 flyplasser (METAR- og TAF-rapporter).

Tilgjengelige stasjoner er representert av de røde og gule prikkene på kartet.

Hold musepekeren over prikken for å se navnet på stasjonen.

Klikk så for å se værobservasjoner og -varsler.

For å forandre kartet kan du klikke på den grønne knappen med svart kryss for å zoome inn, på den grønne knappen med strek for å zoome ut, eller på de grønne pilene for å se tilstøtende kart.


METAR-TAF: